Weather in Leura

Australia     33°42′41″S   150°19′52″E
temp.,
°C
wind,
m/s
gust,
m/s
humid.,
%
clouds,
%
prec.,
mm/h
press.,
hPa
HPBL,
m
24 september, fri
fri2401:00+6nw23934 0.0 101860
04:00+6nw24917 0.0 101770
07:00+11wnw2116615 0.0 1016649
10:00+18wnw510380 0.0 10141526
13:00+21wnw611270 0.0 10112158
16:00+20wnw412338 0.0 10102594
19:00+14nw265334 0.0 1012148
22:00+14nw210475 0.0 1012712
25 september, sat
sat2501:00+13wnw311440 0.0 1011755
04:00+7nw11670 0.0 101414
07:00+10wnw12570 0.0 1016165
10:00+17wsw27180 0.0 10161814
13:00+20wsw25150 0.0 10142707
16:00+16ese22353 0.0 10161490
19:00+8ese1381100 0.0 1022502
22:00+7ese1292100 0.3 1024260
26 september, sun
sun2601:00+6se1396100 0.4 1025251
04:00+5sse1297100 0.8 1025174
07:00+6se149375 0.3 1027486
10:00+7se148399 0.5 1028719
13:00+10e245884 0.1 10261371
16:00+10e3457100 0.2 10261230
19:00+4e118227 0.0 102816
22:00+4n018145 0.0 102914
27 september, mon
mon2701:00+2nw119214 0.0 102813
04:00+1nw11965 0.0 102718
07:00+6nnw13757 0.0 1027162
10:00+15ne233854 0.0 10241324
13:00+19n242991 0.0 10192771
16:00+17wnw2336100 0.0 10191304
19:00+9se117260 0.0 102211
22:00+9nnw117814 0.0 102319
28 september, tue
tue2801:00+6nw119035 0.0 102217
04:00+7nw1178100 0.0 102135
07:00+11nw1159100 0.0 102171
10:00+18nw254118 0.0 10201408
13:00+22nw343071 0.0 10162952
16:00+19nw364443 0.0 1017947
19:00+11nw217658 0.0 101917
22:00+10nw2183100 0.0 102028